Weather History for Holdrege, NE

Change the Weather History Date:

Saturday, October 27, 2012

  Actual Average Record
Temperature  
Mean Temperature 35 °F -  
Max Temperature 47 °F 62 °F 83 °F (1966)
Min Temperature 23 °F 36 °F 8 °F (1997)
Degree Days  
Heating Degree Days 30    
Moisture  
Dew Point 24 °F    
Average Humidity 69    
Maximum Humidity 93    
Minimum Humidity 42    
Precipitation  
Precipitation 0.00 in - - ()
Sea Level Pressure  
Sea Level Pressure 30.25 in    
Wind  
Wind Speed 7 mph (South)    
Max Wind Speed 17 mph    
Max Gust Speed 24 mph    
Visibility 10 miles    
Events      
Averages and records for this station are not official NWS values.
T = Trace of Precipitation, MM = Missing Value Source: NWS Daily Summary

Daily Weather History Graph

Daily Weather History Graph

Search for Another Location

Airport:

Trip Planner

Search our weather history database for the weather conditions in past years. The results will help you decide how hot, cold, wet, or windy it might be!

Date:

Astronomy

Oct. 27, 2012 Rise Set
Actual Time 8:02 AM CDT 6:39 PM CDT
Civil Twilight 7:34 AM CDT 7:07 PM CDT
Nautical Twilight 7:02 AM CDT 7:39 PM CDT
Astronomical Twilight 6:30 AM CDT 8:11 PM CDT
Moon 5:26 PM CDT (10/27) 5:58 AM CDT (10/27)
Length of Visible Light 11h 33m
Length of Day
10h 37m
Waxing Gibbous, 96% of the Moon is Illuminated
Oct 27
Waxing Gibbous
Oct 29
Full
Nov 6
Last Quarter
Nov 13
New
Nov 20
First Quarter

Hourly Weather History & Observations

Time (CDT) Temp. Windchill Dew Point Humidity Pressure Visibility Wind Dir Wind Speed Gust Speed Precip Events Conditions
12:15 AM 24.1 °F 18.2 °F 20.1 °F 85% 30.36 in 10.0 mi South 4.6 mph - N/A   Clear
12:35 AM 25.0 °F - 20.7 °F 84% 30.35 in 10.0 mi Calm Calm - N/A   Clear
12:55 AM 24.3 °F 19.9 °F 19.9 °F 84% 30.35 in 10.0 mi South 3.5 mph - N/A   Clear
1:15 AM 25.7 °F - 21.0 °F 82% 30.35 in 10.0 mi Calm Calm - N/A   Clear
1:35 AM 24.4 °F - 20.3 °F 84% 30.35 in 10.0 mi Calm Calm - N/A   Clear
1:55 AM 24.3 °F - 19.2 °F 81% 30.34 in 10.0 mi Calm Calm - N/A   Clear
2:15 AM 23.7 °F 19.3 °F 19.9 °F 85% 30.33 in 10.0 mi SSE 3.5 mph - N/A   Clear
2:35 AM 23.7 °F 19.3 °F 20.1 °F 86% 30.33 in 10.0 mi South 3.5 mph - N/A   Clear
2:55 AM 24.8 °F 20.5 °F 20.7 °F 84% 30.32 in 10.0 mi SSW 3.5 mph - N/A   Clear
3:35 AM 23.7 °F 17.8 °F 20.1 °F 86% 30.32 in 10.0 mi South 4.6 mph - N/A   Clear
3:55 AM 25.3 °F 19.7 °F 21.6 °F 86% 30.32 in 10.0 mi SSW 4.6 mph - N/A   Clear
4:15 AM 26.4 °F 19.8 °F 22.5 °F 85% 30.32 in 10.0 mi South 5.8 mph - N/A   Clear
4:35 AM 26.6 °F 20.0 °F 22.5 °F 84% 30.32 in 10.0 mi SSW 5.8 mph - N/A   Clear
4:55 AM 26.6 °F 22.6 °F 22.8 °F 86% 30.33 in 10.0 mi South 3.5 mph - N/A   Mostly Cloudy
5:15 AM 27.5 °F 21.1 °F 25.2 °F 91% 30.32 in 5.0 mi South 5.8 mph - N/A   Overcast
5:35 AM 27.5 °F 19.3 °F 25.7 °F 93% 30.32 in 7.0 mi South 8.1 mph - N/A   Overcast
5:55 AM 28.2 °F 23.1 °F 26.1 °F 92% 30.32 in 10.0 mi South 4.6 mph - N/A   Overcast
6:15 AM 28.0 °F 21.7 °F 26.1 °F 92% 30.33 in 7.0 mi South 5.8 mph - N/A   Overcast
6:55 AM 27.1 °F 20.7 °F 25.2 °F 92% 30.32 in 10.0 mi SSE 5.8 mph - N/A   Clear
7:15 AM 27.3 °F 20.9 °F 25.2 °F 92% 30.31 in 10.0 mi SSE 5.8 mph - N/A   Clear
7:35 AM 27.3 °F 20.9 °F 24.8 °F 90% 30.30 in 10.0 mi SSE 5.8 mph - N/A   Clear
7:55 AM 27.5 °F 22.2 °F 25.0 °F 90% 30.30 in 10.0 mi SSE 4.6 mph - N/A   Clear
8:15 AM 28.4 °F 22.2 °F 24.8 °F 86% 30.30 in 10.0 mi South 5.8 mph - N/A   Clear
8:35 AM 28.4 °F 21.2 °F 24.4 °F 85% 30.30 in 10.0 mi SSE 6.9 mph - N/A   Clear
9:15 AM 29.8 °F 21.5 °F 24.8 °F 81% 30.30 in 10.0 mi South 9.2 mph - N/A   Clear
9:35 AM 30.7 °F 22.0 °F 26.1 °F 83% 30.30 in 10.0 mi South 10.4 mph - N/A   Clear
9:55 AM 32.2 °F 22.3 °F 26.4 °F 79% 30.30 in 10.0 mi South 13.8 mph 19.6 mph N/A   Clear
10:35 AM 35.8 °F 26.5 °F 26.8 °F 70% 30.29 in 10.0 mi SSW 15.0 mph 18.4 mph N/A   Clear
10:55 AM 36.7 °F 28.0 °F 25.7 °F 64% 30.28 in 10.0 mi SSW 13.8 mph - N/A   Clear
11:15 AM 37.6 °F 28.1 °F 26.1 °F 63% 30.28 in 10.0 mi SSW 17.3 mph 20.7 mph N/A   Clear
11:35 AM 39.7 °F 31.2 °F 26.2 °F 59% 30.28 in 10.0 mi SSW 16.1 mph 19.6 mph N/A   Clear
11:55 AM 40.3 °F 32.6 °F 25.9 °F 56% 30.28 in 10.0 mi South 13.8 mph - N/A   Clear
12:15 PM 40.6 °F 33.8 °F 25.7 °F 55% 30.27 in 10.0 mi South 11.5 mph 19.6 mph N/A   Clear
12:35 PM 42.1 °F 33.9 °F 25.3 °F 52% 30.26 in 10.0 mi SSW 17.3 mph 21.9 mph N/A   Clear
12:55 PM 42.4 °F 35.3 °F 25.2 °F 50% 30.24 in 10.0 mi South 13.8 mph 19.6 mph N/A   Clear
1:15 PM 43.0 °F 36.0 °F 25.3 °F 50% 30.23 in 10.0 mi South 13.8 mph 20.7 mph N/A   Clear
1:35 PM 43.9 °F 37.5 °F 25.5 °F 48% 30.22 in 10.0 mi SSW 12.7 mph 21.9 mph N/A   Clear
1:55 PM 45.0 °F 38.2 °F 25.9 °F 47% 30.21 in 10.0 mi South 15.0 mph 18.4 mph N/A   Clear
2:15 PM 45.5 °F 40.3 °F 25.3 °F 45% 30.20 in 10.0 mi South 10.4 mph 19.6 mph N/A   Clear
2:35 PM 45.7 °F 38.6 °F 25.2 °F 45% 30.18 in 10.0 mi South 17.3 mph 21.9 mph N/A   Clear
2:55 PM 45.7 °F 39.8 °F 25.9 °F 46% 30.17 in 10.0 mi South 12.7 mph 17.3 mph N/A   Clear
3:15 PM 45.5 °F 38.6 °F 24.8 °F 44% 30.16 in 10.0 mi SSE 16.1 mph 24.2 mph N/A   Clear
3:35 PM 45.9 °F 39.1 °F 24.8 °F 44% 30.16 in 10.0 mi South 16.1 mph 23.0 mph N/A   Scattered Clouds
3:55 PM 47.3 °F - 25.0 °F 42% 30.15 in 10.0 mi South 16.1 mph 21.9 mph N/A   Scattered Clouds
4:15 PM 46.6 °F - 25.0 °F 43% 30.15 in 10.0 mi South 16.1 mph 24.2 mph N/A   Clear
4:35 PM 46.0 °F 39.0 °F 25.5 °F 45% 30.14 in 10.0 mi South 17.3 mph 21.9 mph N/A   Clear
4:55 PM 46.6 °F - 24.8 °F 43% 30.14 in 10.0 mi South 16.1 mph 21.9 mph N/A   Clear
5:15 PM 46.6 °F - 25.2 °F 43% 30.14 in 10.0 mi South 16.1 mph - N/A   Clear
5:35 PM 46.2 °F 40.5 °F 25.3 °F 44% 30.15 in 10.0 mi South 12.7 mph 18.4 mph N/A   Clear
5:55 PM 45.7 °F 40.6 °F 25.3 °F 45% 30.16 in 10.0 mi South 10.4 mph 18.4 mph N/A   Clear
6:15 PM 45.5 °F 40.3 °F 24.8 °F 44% 30.16 in 10.0 mi South 10.4 mph - N/A   Clear
6:35 PM 43.7 °F 38.6 °F 24.8 °F 47% 30.16 in 10.0 mi South 9.2 mph - N/A   Clear
6:55 PM 40.1 °F 34.7 °F 24.8 °F 54% 30.16 in 10.0 mi SSE 8.1 mph - N/A   Clear
7:15 PM 38.3 °F 32.5 °F 24.6 °F 58% 30.16 in 10.0 mi SSE 8.1 mph - N/A   Clear
7:35 PM 36.5 °F 30.3 °F 23.9 °F 60% 30.17 in 10.0 mi SE 8.1 mph - N/A   Clear
7:55 PM 34.2 °F 27.5 °F 23.5 °F 65% 30.18 in 10.0 mi SE 8.1 mph - N/A   Clear
8:15 PM 33.1 °F 24.9 °F 23.4 °F 67% 30.18 in 10.0 mi SE 10.4 mph - N/A   Clear
8:55 PM 34.0 °F 25.5 °F 25.2 °F 70% 30.18 in 10.0 mi SE 11.5 mph - N/A   Clear
9:15 PM 33.8 °F 25.8 °F 25.3 °F 71% 30.19 in 10.0 mi SE 10.4 mph - N/A   Clear
9:35 PM 32.9 °F 25.3 °F 25.3 °F 74% 30.19 in 10.0 mi SE 9.2 mph - N/A   Clear
9:55 PM 32.7 °F 24.5 °F 25.3 °F 74% 30.19 in 10.0 mi SE 10.4 mph - N/A   Clear
10:15 PM 32.4 °F 24.0 °F 25.3 °F 75% 30.20 in 10.0 mi SSE 10.4 mph - N/A   Clear
10:35 PM 30.7 °F 24.9 °F 24.4 °F 77% 30.20 in 10.0 mi SSE 5.8 mph - N/A   Clear
11:15 PM 30.0 °F 22.4 °F 24.4 °F 80% 30.20 in 10.0 mi SSE 8.1 mph - N/A   Clear
11:55 PM 28.9 °F 21.1 °F 23.9 °F 81% 30.20 in 10.0 mi SSE 8.1 mph - N/A   Clear